TimeEET,TemperatureF,Dew PointF,Humidity,Sea Level PressureIn,VisibilityMPH,Wind Direction,Wind SpeedMPH,Gust SpeedMPH,PrecipitationIn,Events,Conditions,WindDirDegrees,DateUTC
12:50 AM,23.0,23.0,100,30.24,-9999.0,East,2.3,-,N/A,,Clear,90,2013-01-21 22:50:00
1:50 AM,23.0,21.2,93,30.24,-9999.0,ENE,3.5,-,N/A,,Clear,70,2013-01-21 23:50:00
2:00 AM,22,21,95,,6,ENE,3.5,,,,,70,2013-01-22 00:00:00
2:50 AM,23.0,23.0,100,30.24,-9999.0,East,3.5,-,N/A,,Clear,90,2013-01-22 00:50:00
3:50 AM,23.0,23.0,100,30.21,6.2,Variable,2.3,-,N/A,,Scattered Clouds,0,2013-01-22 01:50:00
4:50 AM,26.6,24.8,93,30.21,6.2,Variable,2.3,-,N/A,,Scattered Clouds,0,2013-01-22 02:50:00
5:50 AM,23.0,21.2,93,30.21,6.2,ENE,5.8,-,N/A,,Scattered Clouds,60,2013-01-22 03:50:00
6:20 AM,23.0,23.0,100,30.21,3.7,East,4.6,-,N/A,,Partly Cloudy,80,2013-01-22 04:20:00
7:50 AM,28.4,24.8,86,30.21,4.3,NE,3.5,-,N/A,,Mostly Cloudy,40,2013-01-22 05:50:00
8:00 AM,28,25,85,,4,NE,3.5,,,,Mist,40,2013-01-22 06:00:00
8:50 AM,32.0,28.4,87,30.24,2.2,SE,3.5,-,N/A,,Mostly Cloudy,140,2013-01-22 06:50:00
9:50 AM,33.8,28.4,81,30.24,3.7,SSE,5.8,-,N/A,,Mostly Cloudy,150,2013-01-22 07:50:00
10:50 AM,35.6,28.4,75,30.21,3.7,SSE,4.6,-,N/A,,Mostly Cloudy,160,2013-01-22 08:50:00
11:50 AM,33.8,28.4,81,30.18,4.3,SW,5.8,-,N/A,,Scattered Clouds,220,2013-01-22 09:50:00
12:50 PM,35.6,28.4,75,30.18,3.7,WSW,3.5,-,N/A,,Mostly Cloudy,250,2013-01-22 10:50:00
1:50 PM,35.6,30.2,81,30.18,3.7,NNW,3.5,-,N/A,,Mostly Cloudy,340,2013-01-22 11:50:00
2:00 PM,35,29,72,,4,NNW,3.5,,,,Mist,330,2013-01-22 12:00:00
2:50 PM,35.6,30.2,81,30.18,3.7,Variable,2.3,-,N/A,,Mostly Cloudy,0,2013-01-22 12:50:00
3:50 PM,33.8,28.4,81,30.18,3.7,SE,5.8,-,N/A,,Mostly Cloudy,140,2013-01-22 13:50:00
4:50 PM,33.8,28.4,81,30.18,3.7,ESE,4.6,-,N/A,,Mostly Cloudy,120,2013-01-22 14:50:00
5:50 PM,32.0,28.4,87,30.18,2.5,East,5.8,-,N/A,,Mostly Cloudy,80,2013-01-22 15:50:00
6:50 PM,30.2,26.6,86,30.18,3.7,SSE,5.8,-,N/A,,Mostly Cloudy,150,2013-01-22 16:50:00
7:50 PM,28.4,26.6,93,30.18,3.7,East,3.5,-,N/A,,Mostly Cloudy,100,2013-01-22 17:50:00
8:00 PM,29,26,85,,4,East,3.5,,,,Mist,100,2013-01-22 18:00:00
8:50 PM,26.6,24.8,93,30.15,3.7,Variable,2.3,-,N/A,,Mostly Cloudy,0,2013-01-22 18:50:00
9:50 PM,28.4,26.6,93,30.15,3.7,Variable,1.2,-,N/A,,Mostly Cloudy,0,2013-01-22 19:50:00
10:50 PM,26.6,24.8,93,30.12,3.7,SE,3.5,-,N/A,,Mostly Cloudy,130,2013-01-22 20:50:00
11:50 PM,26.6,24.8,93,30.12,3.7,Variable,2.3,-,N/A,,Mostly Cloudy,0,2013-01-22 21:50:00